Location: Unspecified
(0.0000°N, 0.0000°E)
Time: 23:28:12
(UTC+00:00)

GONETS M 08 (M18) - Pass Details

Date: 21 May 2026
Orbit: 1470 x 1518 km, 82.5° (Epoch: 7 June)

Event Time Altitude Azimuth Distance (km) Brightness Sun altitude
Rises 18:13:18 0° 340° (NNW) 4,589 ? -3.9°
Reaches altitude 10° 18:16:23 10° 333° (NNW) 3,606 ? -4.6°
Maximum altitude 18:24:16 40° 267° (W) 2,040 ? -6.5°
Drops below altitude 10° 18:32:11 10° 200° (SSW) 3,603 ? -8.3°
Sets 18:35:18 0° 193° (SSW) 4,584 ? -9.1°
